Location: Tel Aviv
(32.0670°N, 34.7670°E)
Time: 00:39:02
(UTC+02:00)

Transit 4A - Pass Details

Date: 13 December 2023
Orbit: 869 x 974 km, 66.8° (Epoch: 23 February)

Event Time Altitude Azimuth Distance (km) Brightness Sun altitude
Rises 17:39:44 0° 214° (SW) 3,651 11.9 -13.0°
Reaches altitude 10° 17:42:19 10° 218° (SW) 2,710 11.2 -13.5°
Maximum altitude 17:48:35 61° 297° (WNW) 1,096 8.5 -14.8°
Drops below altitude 10° 17:54:51 10° 18° (NNE) 2,700 10.0 -16.0°
Enters shadow 17:55:50 - 20° (NNE) 3,054 10.2 -16.2°
